Flag for U.S.A. Weather past 2 weeks in Springfield, Missouri, U.S.A.

Now
50 °F

Overcast.


Feels Like: 44 °F
Forecast: 35 / 46 °F
Wind: 16 mph from Southwest

Location: Springfield Regional Airport

Current Time: Jan 24, 2015 at 10:59:02 PM

Latest Report: Jan 24, 2015 at 9:52 PM


Visibility: 10 mi

Pressure: 29.80 "Hg

Humidity: 50%

Dew point: 32 °F

Location of SpringfieldLocation

Historic Weather in Springfield — Graph

°F

Springfield temperature yesterday

Maximum temperature yesterday: 42 °F (at 1:52 PM)
Minimum temperature yesterday: 21 °F (at 6:52 AM)
Average temperature yesterday: 31 °F

Past Weeks' High & Low Weather Summary

 TemperatureHumidityPressure
High66 °F (Jan 19, 2:52 PM)97% (Jan 11, 6:52 PM)30.60 "Hg (Jan 11, 6:52 PM)
Low7 °F (Jan 10, 12:52 AM)18% (Jan 18, 2:52 PM)29.83 "Hg (Jan 24, 8:52 PM)
Average36 °F62%30.21 "Hg
* Reported Jan 9 8:52 PM — Jan 24 8:52 PM, Springfield, Weather by CustomWeather, © 2014

Note: Actual official high and low records may vary slightly from our data, if they occured in-between our weather recording intervals... More about our weather records

Advertising

Springfield weather history for previous 24 hours

 ConditionsComfort  
Time TempWeatherWind HumidityBarometerVisibility
8:52 PM
Jan 24
48 °FPassing clouds.15 mph54%29.83 "Hg10 mi
7:52 PM47 °FClear.12 mph54%29.85 "Hg10 mi
6:52 PM45 °FClear.9 mph58%29.86 "Hg10 mi
5:52 PM46 °FClear.7 mph54%29.85 "Hg10 mi
4:52 PM53 °FSunny.14 mph43%29.84 "Hg10 mi
3:52 PM56 °FSunny.14 mph37%29.86 "Hg10 mi
2:52 PM55 °FSunny.13 mph40%29.89 "Hg10 mi
1:52 PM55 °FSunny.10 mph42%29.91 "Hg10 mi
12:52 PM52 °FSunny.12 mph47%29.94 "Hg10 mi
11:52 AM48 °FSunny.7 mph54%29.98 "Hg10 mi
10:52 AM43 °FSunny.8 mph60%30.01 "Hg10 mi
9:52 AM38 °FSunny.9 mph65%30.03 "Hg10 mi
8:52 AM34 °FSunny.8 mph67%30.02 "Hg10 mi
7:52 AM31 °FSunny.7 mph69%30.02 "Hg10 mi
6:52 AM31 °FClear.7 mph69%30.00 "Hg10 mi
5:52 AM32 °FClear.9 mph69%29.98 "Hg10 mi
4:52 AM33 °FClear.10 mph66%29.97 "Hg10 mi
3:52 AM31 °FClear.8 mph69%29.97 "Hg10 mi
2:52 AM28 °FClear.7 mph75%29.98 "Hg10 mi
1:52 AM27 °FClear.8 mph78%29.99 "Hg10 mi
12:52 AM26 °FClear.7 mph81%30.01 "Hg10 mi
11:52 PM
Jan 23
28 °FClear.9 mph78%30.03 "Hg10 mi
10:52 PM29 °FClear.8 mph79%30.05 "Hg10 mi
Weather by CustomWeather, © 2014

See weather overviewHow to use our weather pages